Flag for Thailand Weather past 2 weeks in Khon Kaen, Thailand

Now
84 °F

Partly sunny.


Feels Like: 91 °F
Forecast: 76 / 84 °F
Wind: 5 mph from Southwest

Location: Khon Kaen Airport

Current Time: Jul 26, 2014 at 10:08:12 AM

Latest Report: Jul 26, 2014 at 9:00 AM


Visibility: N/A

Pressure: 29.80 "Hg

Humidity: 70%

Dew point: 73 °F

Location of Khon KaenLocation

Historic Weather in Khon Kaen — Graph

°F

Khon Kaen temperature yesterday

Maximum temperature yesterday: 91 °F (at 2:00 PM)
Minimum temperature yesterday: 77 °F (at 5:00 AM)
Average temperature yesterday: 84 °F

Past Weeks' High & Low Weather Summary

 TemperatureHumidityPressure
High91 °F (Jul 17, 2:00 PM)100% (Jul 19, 10:00 PM)29.80 "Hg (Jul 19, 10:00 PM)
Low59 °F (Jul 19, 10:00 PM)52% (Jul 11, 2:00 PM)29.56 "Hg (Jul 17, 5:00 PM)
Average81 °F80%29.70 "Hg
* Reported Jul 11 8:00 AM — Jul 26 8:00 AM, Khon Kaen, Weather by CustomWeather, © 2014

Note: Actual official high and low records may vary slightly from our data, if they occured in-between our weather recording intervals... More about our weather records

Advertising

Khon Kaen weather history for previous 24 hours

 ConditionsComfort  
Time TempWeatherWind HumidityBarometerVisibility
8:00 AM
Jul 26
82 °FBroken clouds.5 mph74%29.77 "HgN/A
7:00 AM79 °FBroken clouds.3 mph84%29.74 "HgN/A
6:00 AM77 °FBroken clouds.2 mph89%29.71 "HgN/A
5:00 AM77 °FPartly cloudy.2 mph89%29.71 "HgN/A
4:00 AM77 °FPartly cloudy.3 mph89%29.71 "HgN/A
3:00 AM79 °FPartly cloudy.3 mph84%29.71 "HgN/A
2:00 AM79 °FPartly cloudy.5 mph84%29.74 "HgN/A
1:00 AM81 °FPartly cloudy.3 mph79%29.74 "HgN/A
10:00 PM
Jul 25
82 °FPartly cloudy.3 mph74%29.77 "HgN/A
9:00 PM84 °FPartly cloudy.2 mph70%29.74 "HgN/A
8:00 PM84 °FPartly cloudy.2 mph70%29.71 "HgN/A
7:00 PM86 °FPartly cloudy.2 mph66%29.68 "HgN/A
6:00 PM88 °FPartly sunny.2 mph62%29.65 "HgN/A
5:00 PM88 °FBroken clouds.5 mph62%29.65 "HgN/A
4:00 PM88 °FBroken clouds.6 mph59%29.65 "HgN/A
3:00 PM90 °FBroken clouds.6 mph59%29.65 "HgN/A
2:00 PM91 °FBroken clouds.5 mph59%29.68 "HgN/A
1:00 PM86 °FBroken clouds.5 mph66%29.71 "HgN/A
12:00 PM88 °FBroken clouds.5 mph62%29.74 "HgN/A
11:00 AM84 °FBroken clouds.5 mph70%29.77 "HgN/A
10:00 AM82 °FPartly sunny.5 mph74%29.74 "HgN/A
Weather by CustomWeather, © 2014

See weather overviewHow to use our weather pages